Hourly Data Report for January 12, 2022

OTTAWA INTL A
ONTARIO
Current Station Operator: NAVCAN

45°19'00.000" N
75°40'00.000" W
114.90 m
6106001
71628
YOW

Download Data

Hourly Data (January 2022)
Hourly Data Report for January 12, 2022
TIME
LST
Temp Definition
°C
Dew Point Definition
°C
Rel Hum Definition
%
Precip. Amount Definition
mm

Wind Dir Definition
10's deg

Wind Spd Definition
km/h
Visibility Definition
km
Stn Press Definition
kPa
Hmdx Definition


Wind Chill Definition


Weather Definition


00:00 -15.1 -19.0 72   11 18 24.1 100.58   -24 LegendNANA
01:00 -15.8 -19.3 75   8 15 24.1 100.39   -24 Cloudy
02:00 -16.0 -19.2 77   8 13 24.1 100.26   -24 LegendNANA
03:00 -15.9 -19.3 76   8 16 24.1 100.11   -24 LegendNANA
04:00 -16.0 -19.2 76   8 13 24.1 99.99   -24 Cloudy
05:00 -15.5 -18.6 77   9 13 24.1 99.85   -23 Snow
06:00 -14.7 -17.8 77   9 11 24.1 99.79   -21 Snow
07:00 -14.2 -17.3 78   7 11 16.1 99.74   -21 Snow
08:00 -13.4 -15.5 84   8 10 1.6 99.67   -19 Snow
09:00 -11.8 -14.1 84   6 9 4.0 99.63   -17 Snow
10:00 -11.3 -13.2 86   6 10 1.0 99.63   -17 Snow
11:00 -10.7 -13.0 84   4 16 8.1 99.64   -18 Snow
12:00 -10.8 -12.9 84   3 9 9.7 99.61   -16 Snow
13:00 -9.7 -12.1 83   3 7 12.9 99.56   -14 Snow
14:00 -10.2 -12.4 84   36 7 16.1 99.71   -14 Snow
15:00 -9.4 -11.6 85   31 8 24.1 99.84   -14 LegendNANA
16:00 -8.0 -10.2 84   29 7 24.1 99.92   -12 Snow
17:00 -7.2 -9.1 86   27 11 24.1 100.00   -12 LegendNANA
18:00 -6.8 -8.6 87   31 6 12.9 100.11   -10 Snow
19:00 -6.7 -8.2 89   24 3 16.1 100.17   -8 Cloudy
20:00 -6.8 -8.1 90   27 3 16.1 100.24   -8 Snow
21:00 -6.8 -8.1 91   36 2 16.1 100.29   -8 Snow
22:00 -6.8 -8.0 91   14 3 24.1 100.31   -8 Snow
23:00 -7.1 -8.1 92   7 4 24.1 100.32   -9 Snow

Notes on Data Quality.

Legend

  • E = Estimated
  • M = Missing
  • NA = Not Available*
  • [empty] = Indicates an unobserved value
Date modified: